User: anonymous   Login
Location: Trois-Rivi�res
(46.3500°N, 72.5500°W)
Time: 00:20:37
(UTC-04:00)
Language:

Cosmos 1975 - Orbit

View from above orbital plane
View from above orbital plane
View from above satellite
View from above satellite

Ground track
Ground track

The orbit data is extracted from the following two-line orbital elements,

1 19573U 88093A   16206.80187055  .00000705  00000-0  49181-4 0  9991
2 19573  82.5220 302.1267 0013916 339.6963  20.3708 15.03771469510601
Epoch (UTC): 24 July 2016 19:14:41
Eccentricity: 0.0013916
inclination: 82.5220°
perigee height: 545 km
apogee height: 565 km
right ascension of ascending node: 302.1267°
argument of perigee: 339.6963°
revolutions per day: 15.03771469
mean anomaly at epoch: 20.3708°
orbit number at epoch: 51060

The dashed part of the orbit path shows where the satellite is in the earth's shadow,  

DLR